Regional Weather Roundup
Issued by NWS

Current Version | Previous Version | Text Only | Print | Product List | Glossary On
Versions: 1 2 3 4 5 6 7 8 9 10 11 12 13 14 15 16 17 18 19 20 21 22 23 24 25 26 27 28 29 30 31 32 33 34 35 36 37 38 39 40 41 42 43 44 45 46 47 48 49 50
000
ASUS44 KFWD 301415
RWRTX
NORTH TEXAS HOURLY WEATHER ROUNDUP
NATIONAL WEATHER SERVICE FORT WORTH TX
900 AM CDT THU OCT 30 2014

NOTE: "FAIR" INDICATES FEW OR NO CLOUDS BELOW 12,000 FEET WITH NO
SIGNIFICANT WEATHER AND/OR OBSTRUCTIONS TO VISIBILITY.

TXZ118-119-301500-
DALLAS/FORT WORTH METROPLEX

CITY           SKY/WX    TMP DP  RH WIND       PRES   REMARKS
DFW AIRPORT    MOSUNNY   59  50  72 CALM      30.15R
DALLAS LOVE    MOSUNNY   60  48  64 S5        30.16R
FTW MEACHAM    SUNNY     59  48  67 SE6       30.15R
DAL-EXECUTIVE  SUNNY     59  49  69 S5        30.15R
FTW-ALLIANCE   MOSUNNY   57  49  74 VRB3      30.15R
FTW-NAS-JRB    MOSUNNY   61  46  57 E3        30.19R
FTW-SPINKS     SUNNY     55  48  76 CALM      30.17R
ARLINGTON      SUNNY     57  48  72 CALM      30.16R
GRAND PRAIRIE  SUNNY     59  48  67 MISG      30.16S
ADDISON        SUNNY     61  46  59 S9        30.16
MESQUITE       SUNNY     54  48  82 CALM      30.17R
LANCASTER      SUNNY     53  45  75 CALM      30.18R
$$

TXZ091>094-102>105-117-120-121-131>134-301500-
NORTH CENTRAL TEXAS

CITY           SKY/WX    TMP DP  RH WIND       PRES   REMARKS
SHRMAN/DENISON SUNNY     58  49  73 S7        30.16S
GAINESVILLE    SUNNY     53  46  79 S3        30.17R
BOWIE          SUNNY     53  47  78 SE3       30.15R
BRIDGEPORT     SUNNY     53  47  82 CALM      30.17R
DECATUR        SUNNY     59  46  61 S7        30.15R
DENTON         SUNNY     53  48  83 CALM      30.15S
MCKINNEY       SUNNY     51  46  83 CALM      30.17R
GREENVILLE     SUNNY     54  46  76 CALM      30.18R
ROCKWALL       SUNNY     57  47  68 S6        30.16R
TERRELL        SUNNY     56  47  71 CALM      30.17R
WAXAHACHIE     SUNNY     56  49  78 CALM      30.17R
CLEBURNE       PTSUNNY   59  48  67 S5        30.17R
GRANBURY       MOSUNNY   58  49  74 CALM      30.17R
$$

TXZ083>090-098>101-113>116-127>130-139>142-154-155-301500-
WESTERN NORTH TEXAS

CITY           SKY/WX    TMP DP  RH WIND       PRES   REMARKS
WICHITA FALLS  SUNNY     56  45  66 S5        30.14R
WF-KICKAPOO    SUNNY     55  45  68 CALM      30.15R
VERNON         PTSUNNY   55  43  62 CALM      30.15R
ABILENE        SUNNY     60  53  77 S12       30.13R
ABILENE-DYESS  SUNNY     61  54  77 SE10      30.11S
BRECKENRIDGE   MOSUNNY   61  50  67 MISG      30.13R
GRAHAM         PTSUNNY   57  48  72 CALM      30.13R
MINERAL WELLS  SUNNY     56  46  69 SE6       30.13R
STEPHENVILLE   CLOUDY    56  49  78 CALM      30.18R
COMANCHE       CLOUDY    60  57  91 SE3       30.16R FOG
BROWNWOOD      PTSUNNY   57  54  88 CALM      30.16R
COLEMAN        SUNNY     58  53  86 CALM      30.15R
BRADY          CLOUDY    57  57 100 SE3       30.14R
$$

TXZ143>147-156>162-174-175-301500-
CENTRAL TEXAS

CITY           SKY/WX    TMP DP  RH WIND       PRES   REMARKS
WACO           PTSUNNY   57  51  80 E3        30.16R
WACO-MCGREGOR  PTSUNNY   57  46  67 CALM      30.17R
HILLSBORO      MOSUNNY   61  48  62 SE8       30.16R
CORSICANA      SUNNY     58  50  75 SE7       30.17R
MEXIA          SUNNY     56  49  80 SE6       30.16R
HEARNE         SUNNY     57  52  84 CALM      30.16S
CAMERON        MOSUNNY   58  54  85 CALM      30.16R
TEMPLE         PTSUNNY   59  50  72 E3        30.15R
KILLEEN        CLOUDY    61  57  88 SE3       30.17R
KILLEEN-SKYLRK CLOUDY    63  52  67 SE5       30.14R
FORT HOOD      CLOUDY    63  55  75 E3        30.16R
GATESVILLE     PTSUNNY   59  54  82 CALM      30.18R
HAMILTON       PTSUNNY   60  53  77 S12       30.16R
LAMPASAS       CLOUDY    60  57  89 CALM      30.15R
$$

TXZ095>097-106>112-122>126-135>138-148>153-164>167-301500-
EAST TEXAS

CITY           SKY/WX    TMP DP  RH WIND       PRES   REMARKS
PARIS          SUNNY     52  41  66 CALM      30.18R
SULPHUR SPRNGS SUNNY     57  48  71 S3        30.19R
MOUNT PLEASANT SUNNY     48  47  97 CALM      30.19R
MINEOLA        SUNNY     48  48 100 CALM      30.18R
TYLER          SUNNY     56  49  77 SE7       30.16R
LONGVIEW       SUNNY     52  49  89 CALM      30.17R
MARSHALL       SUNNY     53  51  93 CALM      30.19S
ATHENS         SUNNY     52  46  82 CALM      30.16R
PALESTINE      SUNNY     57  49  74 SE5       30.18R
JACKSONVILLE   SUNNY     58  47  66 SE5       30.19R
HENDERSON      SUNNY     50  49  95 CALM      30.18S
NACOGDOCHES    SUNNY     48  45  87 CALM      30.18R
LUFKIN         SUNNY     58  51  78 E3        30.16R
$$

SUPPLEMENTAL OBSERVATIONS (CENTRAL)

CITY           SKY/WX    TMP DP  RH WIND       PRES   REMARKS
LAKE TEXOMA      N/A     55  46  71 SE1         N/A
CADDO GRASSLND   N/A     52  48  87 S2          N/A
PAT MAYSE LAKE   N/A     48  45  87 VRB1        N/A
GREENVILLE       N/A     55  46  71 S2          N/A
PALESTINE        N/A     55  52  88 CALM        N/A
LAKE LIMESTONE   N/A     57  48  72 E3          N/A
MCGREGOR         N/A     59  52  77 CALM        N/A
TEMPLE           N/A     63  54  72 E5          N/A
$$

SUPPLEMENTAL OBSERVATIONS (WEST)

CITY           SKY/WX    TMP DP  RH WIND       PRES   REMARKS
MILLERS CREEK    N/A     59  46  63 S6          N/A
POSSUM KINGDOM   N/A     61  50  67 SE7         N/A
LBJ GRASSLAND    N/A     59  46  63 S7          N/A
GRANBURY         N/A     59  48  67 E1          N/A
COMANCHE         N/A     61  55  82 S5          N/A
HAMBY            N/A     61  52  72 S13         N/A
IVIE RESERVOIR   N/A     61  54  77 SE6         N/A
COLORADO BEND    N/A     63  59  88 S5          N/A
$$

SUPPLEMENTAL OBSERVATIONS (EAST)

CITY           SKY/WX    TMP DP  RH WIND       PRES   REMARKS
CLARKSVILLE      N/A     55  46  71 SE1         N/A
TEXARKANA        N/A     50  45  81 CALM        N/A
LINDEN           N/A     55  52  88 CALM        N/A
CADDO LAKE       N/A     48  46  93 SW1         N/A
GILMER           N/A     54  50  87 CALM        N/A
HENDERSON        N/A     54  50  87 CALM        N/A
N SABINE NF      N/A     45  41  87 MISG        N/A
S SABINE NF      N/A     55  52  88 NE2         N/A
$$

SUPPLEMENTAL OBSERVATIONS ARE A COLLECTION OF AUTOMATED INSTRUMENTS
THAT ARE MAINTAINED BY A VARIETY OF FEDERAL AND STATE AGENCIES.
CERTAIN ELEMENTS...SUCH AS HUMIDITY VALUES AND SUSTAINED WIND
SPEEDS...MAY BE APPROXIMATED.




USA.gov is the U.S. government's official web portal to all federal, state and local government web resources and services.